owner,sensor,date,latitude,longitude,vertical_datum,direction_of_sea_water_velocity,sea_water_speed,upward_sea_water_velocity,qcFlag 
WAVCIS,ioos:station:WAVCIS:CSI10A:1,2019-06-01T00:06:06Z,28.9192,-90.7744,6.4,229.144,39.0,-99999.0,'11111222,11111222,99999999' 
WAVCIS,ioos:station:WAVCIS:CSI10A:1,2019-06-01T01:06:06Z,28.9192,-90.7744,6.4,226.521,38.0,-99999.0,'11111222,11111222,99999999' 
WAVCIS,ioos:station:WAVCIS:CSI10A:1,2019-06-01T02:06:06Z,28.9192,-90.7744,6.4,223.016,38.3,-99999.0,'11111222,11111222,99999999' 
WAVCIS,ioos:station:WAVCIS:CSI10A:1,2019-06-01T03:06:06Z,28.9192,-90.7744,6.4,216.782,42.5,-99999.0,'11111222,11111222,99999999' 
WAVCIS,ioos:station:WAVCIS:CSI10A:1,2019-06-01T04:06:06Z,28.9192,-90.7744,6.4,211.954,49.1,-99999.0,'11111222,11111222,99999999' 
WAVCIS,ioos:station:WAVCIS:CSI10A:1,2019-06-01T05:06:06Z,28.9192,-90.7744,6.4,218.933,42.8,-99999.0,'11111222,11111222,99999999' 
WAVCIS,ioos:station:WAVCIS:CSI10A:1,2019-06-01T06:06:06Z,28.9192,-90.7744,6.4,218.166,39.2,-99999.0,'11111222,11111222,99999999' 
WAVCIS,ioos:station:WAVCIS:CSI10A:1,2019-06-01T07:06:06Z,28.9192,-90.7744,6.4,218.47,38.6,-99999.0,'11111222,11111222,99999999' 
WAVCIS,ioos:station:WAVCIS:CSI10A:1,2019-06-01T08:06:06Z,28.9192,-90.7744,6.4,216.471,24.7,-99999.0,'11111222,11111222,99999999' 
WAVCIS,ioos:station:WAVCIS:CSI10A:1,2019-06-01T09:06:06Z,28.9192,-90.7744,6.4,206.51,29.0,-99999.0,'11111222,11111222,99999999' 
WAVCIS,ioos:station:WAVCIS:CSI10A:1,2019-06-01T10:06:06Z,28.9192,-90.7744,6.4,201.364,29.4,-99999.0,'11111222,11111222,99999999' 
WAVCIS,ioos:station:WAVCIS:CSI10A:1,2019-06-01T11:06:06Z,28.9192,-90.7744,6.4,201.08,32.1,-99999.0,'11111222,11111222,99999999' 
WAVCIS,ioos:station:WAVCIS:CSI10A:1,2019-06-01T12:06:06Z,28.9192,-90.7744,6.4,202.5,32.7,-99999.0,'11111222,11111222,99999999' 
WAVCIS,ioos:station:WAVCIS:CSI10A:1,2019-06-01T13:06:06Z,28.9192,-90.7744,6.4,200.034,31.2,-99999.0,'11111222,11111222,99999999' 
WAVCIS,ioos:station:WAVCIS:CSI10A:1,2019-06-01T14:06:06Z,28.9192,-90.7744,6.4,199.626,37.0,-99999.0,'11111222,11111222,99999999' 
WAVCIS,ioos:station:WAVCIS:CSI10A:1,2019-06-01T15:06:06Z,28.9192,-90.7744,6.4,200.662,45.3,-99999.0,'11111222,11111222,99999999' 
WAVCIS,ioos:station:WAVCIS:CSI10A:1,2019-06-01T16:06:06Z,28.9192,-90.7744,6.4,200.293,48.2,-99999.0,'11111222,11111222,99999999' 
WAVCIS,ioos:station:WAVCIS:CSI10A:1,2019-06-01T17:06:06Z,28.9192,-90.7744,6.4,199.245,48.6,-99999.0,'11111222,11111222,99999999' 
WAVCIS,ioos:station:WAVCIS:CSI10A:1,2019-06-01T18:06:06Z,28.9192,-90.7744,6.4,198.197,48.9,-99999.0,'11111222,11111222,99999999' 
WAVCIS,ioos:station:WAVCIS:CSI10A:1,2019-06-01T19:06:06Z,28.9192,-90.7744,6.4,202.882,57.5,-99999.0,'11111222,11111222,99999999' 
WAVCIS,ioos:station:WAVCIS:CSI10A:1,2019-06-01T20:06:06Z,28.9192,-90.7744,6.4,202.065,58.1,-99999.0,'11111222,11111222,99999999' 
WAVCIS,ioos:station:WAVCIS:CSI10A:1,2019-06-01T21:06:06Z,28.9192,-90.7744,6.4,201.571,57.1,-99999.0,'11111222,11111222,99999999' 
WAVCIS,ioos:station:WAVCIS:CSI10A:1,2019-06-01T22:06:06Z,28.9192,-90.7744,6.4,201.077,56.2,-99999.0,'11111222,11111222,99999999' 
WAVCIS,ioos:station:WAVCIS:CSI10A:1,2019-06-01T23:06:06Z,28.9192,-90.7744,6.4,198.66,46.1,-99999.0,'11111222,11111222,99999999' 
WAVCIS,ioos:station:WAVCIS:CSI10A:1,2019-06-02T00:06:06Z,28.9192,-90.7744,6.4,208.613,29.2,-99999.0,'11111222,11111222,99999999' 
WAVCIS,ioos:station:WAVCIS:CSI10A:1,2019-06-02T01:06:06Z,28.9192,-90.7744,6.4,206.155,23.0,-99999.0,'11111222,11111222,99999999' 
WAVCIS,ioos:station:WAVCIS:CSI10A:1,2019-06-02T02:06:06Z,28.9192,-90.7744,6.4,208.178,23.0,-99999.0,'11111222,11111222,99999999' 
WAVCIS,ioos:station:WAVCIS:CSI10A:1,2019-06-02T03:06:06Z,28.9192,-90.7744,6.4,206.033,19.5,-99999.0,'11111222,11111222,99999999' 
WAVCIS,ioos:station:WAVCIS:CSI10A:1,2019-06-02T04:06:06Z,28.9192,-90.7744,6.4,204.925,25.1,-99999.0,'11111222,11111222,99999999' 
WAVCIS,ioos:station:WAVCIS:CSI10A:1,2019-06-02T05:06:06Z,28.9192,-90.7744,6.4,206.619,17.7,-99999.0,'11111222,11111222,99999999' 
WAVCIS,ioos:station:WAVCIS:CSI10A:1,2019-06-02T06:06:06Z,28.9192,-90.7744,6.4,200.04,13.8,-99999.0,'11111222,11111222,99999999' 
WAVCIS,ioos:station:WAVCIS:CSI10A:1,2019-06-02T07:06:06Z,28.9192,-90.7744,6.4,195.751,12.8,-99999.0,'11111222,11111222,99999999' 
WAVCIS,ioos:station:WAVCIS:CSI10A:1,2019-06-02T08:06:06Z,28.9192,-90.7744,6.4,195.58,11.9,-99999.0,'11111222,11111222,99999999' 
WAVCIS,ioos:station:WAVCIS:CSI10A:1,2019-06-02T09:06:06Z,28.9192,-90.7744,6.4,170.336,11.6,-99999.0,'11111222,11111222,99999999' 
WAVCIS,ioos:station:WAVCIS:CSI10A:1,2019-06-02T10:06:06Z,28.9192,-90.7744,6.4,145.092,11.2,-99999.0,'11111222,11111222,99999999' 
WAVCIS,ioos:station:WAVCIS:CSI10A:1,2019-06-02T11:06:06Z,28.9192,-90.7744,6.4,130.34,12.5,-99999.0,'11111222,11111222,99999999' 
WAVCIS,ioos:station:WAVCIS:CSI10A:1,2019-06-02T12:06:06Z,28.9192,-90.7744,6.4,126.893,15.5,-99999.0,'11111222,11111222,99999999' 
WAVCIS,ioos:station:WAVCIS:CSI10A:1,2019-06-02T13:06:06Z,28.9192,-90.7744,6.4,123.445,18.6,-99999.0,'11111222,11111222,99999999' 
WAVCIS,ioos:station:WAVCIS:CSI10A:1,2019-06-02T14:06:06Z,28.9192,-90.7744,6.4,130.394,15.1,-99999.0,'11111222,11111222,99999999' 
WAVCIS,ioos:station:WAVCIS:CSI10A:1,2019-06-02T15:06:06Z,28.9192,-90.7744,6.4,127.903,17.6,-99999.0,'11111222,11111222,99999999' 
WAVCIS,ioos:station:WAVCIS:CSI10A:1,2019-06-02T16:06:06Z,28.9192,-90.7744,6.4,143.181,18.7,-99999.0,'11111222,11111222,99999999' 
WAVCIS,ioos:station:WAVCIS:CSI10A:1,2019-06-02T17:06:06Z,28.9192,-90.7744,6.4,147.817,23.2,-99999.0,'11111222,11111222,99999999' 
WAVCIS,ioos:station:WAVCIS:CSI10A:1,2019-06-02T18:06:06Z,28.9192,-90.7744,6.4,131.749,17.0,-99999.0,'11111222,11111222,99999999' 
WAVCIS,ioos:station:WAVCIS:CSI10A:1,2019-06-02T19:06:06Z,28.9192,-90.7744,6.4,133.381,17.7,-99999.0,'11111222,11111222,99999999' 
WAVCIS,ioos:station:WAVCIS:CSI10A:1,2019-06-02T20:06:06Z,28.9192,-90.7744,6.4,138.666,19.7,-99999.0,'11111222,11111222,99999999' 
WAVCIS,ioos:station:WAVCIS:CSI10A:1,2019-06-02T21:06:06Z,28.9192,-90.7744,6.4,130.575,12.4,-99999.0,'11111222,11111222,99999999' 
WAVCIS,ioos:station:WAVCIS:CSI10A:1,2019-06-02T22:06:06Z,28.9192,-90.7744,6.4,140.531,9.2,-99999.0,'11111222,11111222,99999999' 
WAVCIS,ioos:station:WAVCIS:CSI10A:1,2019-06-02T23:06:06Z,28.9192,-90.7744,6.4,136.736,8.4,-99999.0,'11111222,11111222,99999999' 
WAVCIS,ioos:station:WAVCIS:CSI10A:1,2019-06-03T00:06:06Z,28.9192,-90.7744,6.4,173.157,11.5,-99999.0,'11111222,11111222,99999999' 
WAVCIS,ioos:station:WAVCIS:CSI10A:1,2019-06-03T01:06:06Z,28.9192,-90.7744,6.4,227.862,23.7,-99999.0,'11111222,11111222,99999999' 
WAVCIS,ioos:station:WAVCIS:CSI10A:1,2019-06-03T02:06:06Z,28.9192,-90.7744,6.4,247.405,12.0,-99999.0,'11111222,11111222,99999999' 
WAVCIS,ioos:station:WAVCIS:CSI10A:1,2019-06-03T03:06:06Z,28.9192,-90.7744,6.4,252.874,13.8,-99999.0,'11111222,11111222,99999999' 
WAVCIS,ioos:station:WAVCIS:CSI10A:1,2019-06-03T04:06:06Z,28.9192,-90.7744,6.4,278.668,15.7,-99999.0,'11111222,11111222,99999999' 
WAVCIS,ioos:station:WAVCIS:CSI10A:1,2019-06-03T05:06:06Z,28.9192,-90.7744,6.4,277.95,19.2,-99999.0,'11111222,11111222,99999999' 
WAVCIS,ioos:station:WAVCIS:CSI10A:1,2019-06-03T06:06:06Z,28.9192,-90.7744,6.4,297.823,14.8,-99999.0,'11111222,11111222,99999999' 
WAVCIS,ioos:station:WAVCIS:CSI10A:1,2019-06-03T07:06:06Z,28.9192,-90.7744,6.4,289.12,14.4,-99999.0,'11111222,11111222,99999999' 
WAVCIS,ioos:station:WAVCIS:CSI10A:1,2019-06-03T08:06:06Z,28.9192,-90.7744,6.4,146.306,11.7,-99999.0,'11111222,11111222,99999999' 
WAVCIS,ioos:station:WAVCIS:CSI10A:1,2019-06-03T09:06:06Z,28.9192,-90.7744,6.4,59.192,12.2,-99999.0,'11111222,11111222,99999999' 
WAVCIS,ioos:station:WAVCIS:CSI10A:1,2019-06-03T10:06:06Z,28.9192,-90.7744,6.4,69.331,18.3,-99999.0,'11111222,11111222,99999999' 
WAVCIS,ioos:station:WAVCIS:CSI10A:1,2019-06-03T11:06:06Z,28.9192,-90.7744,6.4,79.077,21.2,-99999.0,'11111222,11111222,99999999' 
WAVCIS,ioos:station:WAVCIS:CSI10A:1,2019-06-03T12:06:06Z,28.9192,-90.7744,6.4,88.771,23.8,-99999.0,'11111222,11111222,99999999' 
WAVCIS,ioos:station:WAVCIS:CSI10A:1,2019-06-03T13:06:06Z,28.9192,-90.7744,6.4,98.465,26.3,-99999.0,'11111222,11111222,99999999' 
WAVCIS,ioos:station:WAVCIS:CSI10A:1,2019-06-03T14:06:06Z,28.9192,-90.7744,6.4,110.366,20.2,-99999.0,'11111222,11111222,99999999' 
WAVCIS,ioos:station:WAVCIS:CSI10A:1,2019-06-03T15:06:06Z,28.9192,-90.7744,6.4,124.527,6.9,-99999.0,'11111222,11111222,99999999' 
WAVCIS,ioos:station:WAVCIS:CSI10A:1,2019-06-03T16:06:06Z,28.9192,-90.7744,6.4,133.871,15.9,-99999.0,'11111222,11111222,99999999' 
WAVCIS,ioos:station:WAVCIS:CSI10A:1,2019-06-03T17:06:06Z,28.9192,-90.7744,6.4,110.122,15.3,-99999.0,'11111222,11111222,99999999' 
WAVCIS,ioos:station:WAVCIS:CSI10A:1,2019-06-03T18:06:06Z,28.9192,-90.7744,6.4,103.698,13.4,-99999.0,'11111222,11111222,99999999' 
WAVCIS,ioos:station:WAVCIS:CSI10A:1,2019-06-03T19:06:06Z,28.9192,-90.7744,6.4,139.372,11.8,-99999.0,'11111222,11111222,99999999' 
WAVCIS,ioos:station:WAVCIS:CSI10A:1,2019-06-03T20:06:06Z,28.9192,-90.7744,6.4,137.868,9.8,-99999.0,'11111222,11111222,99999999' 
WAVCIS,ioos:station:WAVCIS:CSI10A:1,2019-06-03T21:06:06Z,28.9192,-90.7744,6.4,145.348,10.8,-99999.0,'11111222,11111222,99999999' 
WAVCIS,ioos:station:WAVCIS:CSI10A:1,2019-06-03T22:06:06Z,28.9192,-90.7744,6.4,175.088,13.7,-99999.0,'11111222,11111222,99999999' 
WAVCIS,ioos:station:WAVCIS:CSI10A:1,2019-06-03T23:06:06Z,28.9192,-90.7744,6.4,199.012,14.6,-99999.0,'11111222,11111222,99999999' 
WAVCIS,ioos:station:WAVCIS:CSI10A:1,2019-06-04T00:06:06Z,28.9192,-90.7744,6.4,222.181,15.2,-99999.0,'11111222,11111222,99999999' 
WAVCIS,ioos:station:WAVCIS:CSI10A:1,2019-06-04T01:06:06Z,28.9192,-90.7744,6.4,245.351,15.9,-99999.0,'11111222,11111222,99999999' 
WAVCIS,ioos:station:WAVCIS:CSI10A:1,2019-06-04T02:06:06Z,28.9192,-90.7744,6.4,252.558,21.9,-99999.0,'11111222,11111222,99999999' 
WAVCIS,ioos:station:WAVCIS:CSI10A:1,2019-06-04T03:06:06Z,28.9192,-90.7744,6.4,256.781,29.0,-99999.0,'11111222,11111222,99999999' 
WAVCIS,ioos:station:WAVCIS:CSI10A:1,2019-06-04T04:06:06Z,28.9192,-90.7744,6.4,262.832,38.2,-99999.0,'11111222,11111222,99999999' 
WAVCIS,ioos:station:WAVCIS:CSI10A:1,2019-06-04T05:06:06Z,28.9192,-90.7744,6.4,271.953,42.3,-99999.0,'11111222,11111222,99999999' 
WAVCIS,ioos:station:WAVCIS:CSI10A:1,2019-06-04T06:06:06Z,28.9192,-90.7744,6.4,299.618,39.3,-99999.0,'11111222,11111222,99999999' 
WAVCIS,ioos:station:WAVCIS:CSI10A:1,2019-06-04T07:06:06Z,28.9192,-90.7744,6.4,322.692,38.2,-99999.0,'11111222,11111222,99999999' 
WAVCIS,ioos:station:WAVCIS:CSI10A:1,2019-06-04T08:06:06Z,28.9192,-90.7744,6.4,336.944,32.9,-99999.0,'11111222,11111222,99999999' 
WAVCIS,ioos:station:WAVCIS:CSI10A:1,2019-06-04T09:06:06Z,28.9192,-90.7744,6.4,279.615,29.2,-99999.0,'11111222,11111222,99999999' 
WAVCIS,ioos:station:WAVCIS:CSI10A:1,2019-06-04T10:06:06Z,28.9192,-90.7744,6.4,182.935,26.5,-99999.0,'11111222,11111222,99999999' 
WAVCIS,ioos:station:WAVCIS:CSI10A:1,2019-06-04T11:06:06Z,28.9192,-90.7744,6.4,86.255,23.8,-99999.0,'11111222,11111222,99999999' 
WAVCIS,ioos:station:WAVCIS:CSI10A:1,2019-06-04T12:06:06Z,28.9192,-90.7744,6.4,18.169,24.1,-99999.0,'11111222,11111222,99999999' 
WAVCIS,ioos:station:WAVCIS:CSI10A:1,2019-06-04T13:06:06Z,28.9192,-90.7744,6.4,61.307,17.8,-99999.0,'11111222,11111222,99999999' 
WAVCIS,ioos:station:WAVCIS:CSI10A:1,2019-06-04T14:06:06Z,28.9192,-90.7744,6.4,100.319,14.1,-99999.0,'11111222,11111222,99999999' 
WAVCIS,ioos:station:WAVCIS:CSI10A:1,2019-06-04T15:06:06Z,28.9192,-90.7744,6.4,121.578,11.1,-99999.0,'11111222,11111222,99999999' 
WAVCIS,ioos:station:WAVCIS:CSI10A:1,2019-06-04T16:06:06Z,28.9192,-90.7744,6.4,129.09,7.6,-99999.0,'11111222,11111222,99999999' 
WAVCIS,ioos:station:WAVCIS:CSI10A:1,2019-06-04T17:06:06Z,28.9192,-90.7744,6.4,128.289,6.0,-99999.0,'11111222,11111222,99999999' 
WAVCIS,ioos:station:WAVCIS:CSI10A:1,2019-06-04T18:06:06Z,28.9192,-90.7744,6.4,193.486,5.5,-99999.0,'11111222,11111222,99999999' 
WAVCIS,ioos:station:WAVCIS:CSI10A:1,2019-06-04T19:06:06Z,28.9192,-90.7744,6.4,229.415,18.9,-99999.0,'11111222,11111222,99999999' 
WAVCIS,ioos:station:WAVCIS:CSI10A:1,2019-06-04T20:06:06Z,28.9192,-90.7744,6.4,239.35,20.6,-99999.0,'11111222,11111222,99999999' 
WAVCIS,ioos:station:WAVCIS:CSI10A:1,2019-06-04T21:06:06Z,28.9192,-90.7744,6.4,256.825,20.1,-99999.0,'11111222,11111222,99999999' 
WAVCIS,ioos:station:WAVCIS:CSI10A:1,2019-06-04T22:06:06Z,28.9192,-90.7744,6.4,251.953,20.9,-99999.0,'11111222,11111222,99999999' 
WAVCIS,ioos:station:WAVCIS:CSI10A:1,2019-06-04T23:06:06Z,28.9192,-90.7744,6.4,249.084,23.1,-99999.0,'11111222,11111222,99999999' 
WAVCIS,ioos:station:WAVCIS:CSI10A:1,2019-06-05T00:06:06Z,28.9192,-90.7744,6.4,249.432,27.4,-99999.0,'11111222,11111222,99999999' 
WAVCIS,ioos:station:WAVCIS:CSI10A:1,2019-06-05T01:06:06Z,28.9192,-90.7744,6.4,262.42,26.2,-99999.0,'11111222,11111222,99999999' 
WAVCIS,ioos:station:WAVCIS:CSI10A:1,2019-06-05T02:06:06Z,28.9192,-90.7744,6.4,272.949,37.9,-99999.0,'11111222,11111222,99999999' 
WAVCIS,ioos:station:WAVCIS:CSI10A:1,2019-06-05T03:06:06Z,28.9192,-90.7744,6.4,287.59,40.9,-99999.0,'11111222,11111222,99999999' 
WAVCIS,ioos:station:WAVCIS:CSI10A:1,2019-06-05T04:06:06Z,28.9192,-90.7744,6.4,308.115,50.0,-99999.0,'11111222,11111222,99999999' 
WAVCIS,ioos:station:WAVCIS:CSI10A:1,2019-06-05T05:06:06Z,28.9192,-90.7744,6.4,317.667,55.8,-99999.0,'11111222,11111222,99999999' 
WAVCIS,ioos:station:WAVCIS:CSI10A:1,2019-06-05T06:06:06Z,28.9192,-90.7744,6.4,307.893,37.7,-99999.0,'11111222,11111222,99999999' 
WAVCIS,ioos:station:WAVCIS:CSI10A:1,2019-06-05T07:06:06Z,28.9192,-90.7744,6.4,310.867,30.3,-99999.0,'11111222,11111222,99999999' 
WAVCIS,ioos:station:WAVCIS:CSI10A:1,2019-06-05T08:06:06Z,28.9192,-90.7744,6.4,314.344,23.3,-99999.0,'11111222,11111222,99999999' 
WAVCIS,ioos:station:WAVCIS:CSI10A:1,2019-06-05T09:06:06Z,28.9192,-90.7744,6.4,257.7,16.6,-99999.0,'11111222,11111222,99999999' 
WAVCIS,ioos:station:WAVCIS:CSI10A:1,2019-06-05T10:06:06Z,28.9192,-90.7744,6.4,240.652,14.4,-99999.0,'11111222,11111222,99999999' 
WAVCIS,ioos:station:WAVCIS:CSI10A:1,2019-06-05T11:06:06Z,28.9192,-90.7744,6.4,335.756,4.2,-99999.0,'11111222,11111222,99999999' 
WAVCIS,ioos:station:WAVCIS:CSI10A:1,2019-06-05T12:06:06Z,28.9192,-90.7744,6.4,313.386,2.6,-99999.0,'11133222,11111222,99999999' 
WAVCIS,ioos:station:WAVCIS:CSI10A:1,2019-06-05T13:06:06Z,28.9192,-90.7744,6.4,270.766,4.9,-99999.0,'11111222,11111222,99999999' 
WAVCIS,ioos:station:WAVCIS:CSI10A:1,2019-06-05T14:06:06Z,28.9192,-90.7744,6.4,227.825,9.0,-99999.0,'11111222,11111222,99999999' 
WAVCIS,ioos:station:WAVCIS:CSI10A:1,2019-06-05T15:06:06Z,28.9192,-90.7744,6.4,258.743,13.3,-99999.0,'11111222,11111222,99999999' 
WAVCIS,ioos:station:WAVCIS:CSI10A:1,2019-06-05T16:06:06Z,28.9192,-90.7744,6.4,278.155,9.1,-99999.0,'11111222,11111222,99999999' 
WAVCIS,ioos:station:WAVCIS:CSI10A:1,2019-06-05T17:06:06Z,28.9192,-90.7744,6.4,247.5,13.5,-99999.0,'11111222,11111222,99999999' 
WAVCIS,ioos:station:WAVCIS:CSI10A:1,2019-06-05T18:06:06Z,28.9192,-90.7744,6.4,249.275,16.9,-99999.0,'11111222,11111222,99999999' 
WAVCIS,ioos:station:WAVCIS:CSI10A:1,2019-06-05T19:06:06Z,28.9192,-90.7744,6.4,260.034,16.0,-99999.0,'11111222,11111222,99999999' 
WAVCIS,ioos:station:WAVCIS:CSI10A:1,2019-06-05T20:06:06Z,28.9192,-90.7744,6.4,270.793,15.1,-99999.0,'11111222,11111222,99999999' 
WAVCIS,ioos:station:WAVCIS:CSI10A:1,2019-06-05T21:06:06Z,28.9192,-90.7744,6.4,281.551,14.2,-99999.0,'11111222,11111222,99999999' 
WAVCIS,ioos:station:WAVCIS:CSI10A:1,2019-06-05T22:06:06Z,28.9192,-90.7744,6.4,271.341,14.5,-99999.0,'11111222,11111222,99999999' 
WAVCIS,ioos:station:WAVCIS:CSI10A:1,2019-06-05T23:06:06Z,28.9192,-90.7744,6.4,256.488,15.0,-99999.0,'11111222,11111222,99999999' 
WAVCIS,ioos:station:WAVCIS:CSI10A:1,2019-06-06T00:06:06Z,28.9192,-90.7744,6.4,236.617,10.9,-99999.0,'11111222,11111222,99999999' 
WAVCIS,ioos:station:WAVCIS:CSI10A:1,2019-06-06T01:06:06Z,28.9192,-90.7744,6.4,224.847,22.7,-99999.0,'11111222,11111222,99999999' 
WAVCIS,ioos:station:WAVCIS:CSI10A:1,2019-06-06T02:06:06Z,28.9192,-90.7744,6.4,261.371,18.5,-99999.0,'11111222,11111222,99999999' 
WAVCIS,ioos:station:WAVCIS:CSI10A:1,2019-06-06T03:06:06Z,28.9192,-90.7744,6.4,271.444,16.0,-99999.0,'11111222,11111222,99999999' 
WAVCIS,ioos:station:WAVCIS:CSI10A:1,2019-06-06T04:06:06Z,28.9192,-90.7744,6.4,271.5,22.9,-99999.0,'11111222,11111222,99999999' 
WAVCIS,ioos:station:WAVCIS:CSI10A:1,2019-06-06T05:06:06Z,28.9192,-90.7744,6.4,270.078,18.5,-99999.0,'11111222,11111222,99999999' 
WAVCIS,ioos:station:WAVCIS:CSI10A:1,2019-06-06T06:06:06Z,28.9192,-90.7744,6.4,277.659,25.1,-99999.0,'11111222,11111222,99999999' 
WAVCIS,ioos:station:WAVCIS:CSI10A:1,2019-06-06T07:06:06Z,28.9192,-90.7744,6.4,283.98,40.0,-99999.0,'11111222,11111222,99999999' 
WAVCIS,ioos:station:WAVCIS:CSI10A:1,2019-06-06T08:06:06Z,28.9192,-90.7744,6.4,290.623,33.3,-99999.0,'11111222,11111222,99999999' 
WAVCIS,ioos:station:WAVCIS:CSI10A:1,2019-06-06T09:06:06Z,28.9192,-90.7744,6.4,289.342,29.4,-99999.0,'11111222,11111222,99999999' 
WAVCIS,ioos:station:WAVCIS:CSI10A:1,2019-06-06T10:06:06Z,28.9192,-90.7744,6.4,311.181,26.5,-99999.0,'11111222,11111222,99999999' 
WAVCIS,ioos:station:WAVCIS:CSI10A:1,2019-06-06T11:06:06Z,28.9192,-90.7744,6.4,127.258,29.3,-99999.0,'11111222,11111222,99999999' 
WAVCIS,ioos:station:WAVCIS:CSI10A:1,2019-06-06T12:06:06Z,28.9192,-90.7744,6.4,25.788,46.1,-99999.0,'11111222,11111222,99999999' 
WAVCIS,ioos:station:WAVCIS:CSI10A:1,2019-06-06T13:06:06Z,28.9192,-90.7744,6.4,28.222,46.9,-99999.0,'11111222,11111222,99999999' 
WAVCIS,ioos:station:WAVCIS:CSI10A:1,2019-06-06T14:06:06Z,28.9192,-90.7744,6.4,43.606,43.9,-99999.0,'11111222,11111222,99999999' 
WAVCIS,ioos:station:WAVCIS:CSI10A:1,2019-06-06T15:06:06Z,28.9192,-90.7744,6.4,58.23,40.5,-99999.0,'11111222,11111222,99999999' 
WAVCIS,ioos:station:WAVCIS:CSI10A:1,2019-06-06T16:06:06Z,28.9192,-90.7744,6.4,63.745,44.8,-99999.0,'11111222,11111222,99999999' 
WAVCIS,ioos:station:WAVCIS:CSI10A:1,2019-06-06T17:06:06Z,28.9192,-90.7744,6.4,67.267,42.9,-99999.0,'11111222,11111222,99999999' 
WAVCIS,ioos:station:WAVCIS:CSI10A:1,2019-06-06T18:06:06Z,28.9192,-90.7744,6.4,58.911,44.9,-99999.0,'11111222,11111222,99999999' 
WAVCIS,ioos:station:WAVCIS:CSI10A:1,2019-06-06T19:06:06Z,28.9192,-90.7744,6.4,101.643,56.3,-99999.0,'11111222,11111222,99999999' 
WAVCIS,ioos:station:WAVCIS:CSI10A:1,2019-06-06T20:06:06Z,28.9192,-90.7744,6.4,81.857,45.0,-99999.0,'11111222,11111222,99999999' 
WAVCIS,ioos:station:WAVCIS:CSI10A:1,2019-06-06T21:06:06Z,28.9192,-90.7744,6.4,98.14,47.3,-99999.0,'11111222,11111222,99999999' 
WAVCIS,ioos:station:WAVCIS:CSI10A:1,2019-06-06T22:06:06Z,28.9192,-90.7744,6.4,100.246,46.5,-99999.0,'11111222,11111222,99999999' 
WAVCIS,ioos:station:WAVCIS:CSI10A:1,2019-06-06T23:06:06Z,28.9192,-90.7744,6.4,111.0,46.0,-99999.0,'11111222,11111222,99999999' 
WAVCIS,ioos:station:WAVCIS:CSI10A:1,2019-06-07T00:06:06Z,28.9192,-90.7744,6.4,114.0,41.7,-99999.0,'11111222,11111222,99999999' 
WAVCIS,ioos:station:WAVCIS:CSI10A:1,2019-06-07T01:06:06Z,28.9192,-90.7744,6.4,110.289,40.2,-99999.0,'11111222,11111222,99999999' 
WAVCIS,ioos:station:WAVCIS:CSI10A:1,2019-06-07T02:06:06Z,28.9192,-90.7744,6.4,106.515,27.7,-99999.0,'11111222,11111222,99999999' 
WAVCIS,ioos:station:WAVCIS:CSI10A:1,2019-06-07T03:06:06Z,28.9192,-90.7744,6.4,102.04,13.8,-99999.0,'11111222,11111222,99999999' 
WAVCIS,ioos:station:WAVCIS:CSI10A:1,2019-06-07T04:06:06Z,28.9192,-90.7744,6.4,132.707,6.8,-99999.0,'11111222,11111222,99999999' 
WAVCIS,ioos:station:WAVCIS:CSI10A:1,2019-06-07T05:06:06Z,28.9192,-90.7744,6.4,145.52,7.9,-99999.0,'11111222,11111222,99999999' 
WAVCIS,ioos:station:WAVCIS:CSI10A:1,2019-06-07T06:06:06Z,28.9192,-90.7744,6.4,154.322,10.2,-99999.0,'11111222,11111222,99999999' 
WAVCIS,ioos:station:WAVCIS:CSI10A:1,2019-06-07T07:06:06Z,28.9192,-90.7744,6.4,115.096,7.6,-99999.0,'11111222,11111222,99999999' 
WAVCIS,ioos:station:WAVCIS:CSI10A:1,2019-06-07T08:06:06Z,28.9192,-90.7744,6.4,68.674,10.2,-99999.0,'11111222,11111222,99999999' 
WAVCIS,ioos:station:WAVCIS:CSI10A:1,2019-06-07T09:06:06Z,28.9192,-90.7744,6.4,69.123,15.4,-99999.0,'11111222,11111222,99999999' 
WAVCIS,ioos:station:WAVCIS:CSI10A:1,2019-06-07T10:06:06Z,28.9192,-90.7744,6.4,93.666,16.0,-99999.0,'11111222,11111222,99999999' 
WAVCIS,ioos:station:WAVCIS:CSI10A:1,2019-06-07T11:06:06Z,28.9192,-90.7744,6.4,82.478,22.7,-99999.0,'11111222,11111222,99999999' 
WAVCIS,ioos:station:WAVCIS:CSI10A:1,2019-06-07T12:06:06Z,28.9192,-90.7744,6.4,83.823,27.2,-99999.0,'11111222,11111222,99999999' 
WAVCIS,ioos:station:WAVCIS:CSI10A:1,2019-06-07T13:06:06Z,28.9192,-90.7744,6.4,78.0,30.5,-99999.0,'11111222,11111222,99999999' 
WAVCIS,ioos:station:WAVCIS:CSI10A:1,2019-06-07T14:06:06Z,28.9192,-90.7744,6.4,84.667,29.8,-99999.0,'11111222,11111222,99999999' 
WAVCIS,ioos:station:WAVCIS:CSI10A:1,2019-06-07T15:06:06Z,28.9192,-90.7744,6.4,91.506,32.2,-99999.0,'11111222,11111222,99999999' 
WAVCIS,ioos:station:WAVCIS:CSI10A:1,2019-06-07T16:06:06Z,28.9192,-90.7744,6.4,87.622,32.9,-99999.0,'11111222,11111222,99999999' 
WAVCIS,ioos:station:WAVCIS:CSI10A:1,2019-06-07T17:06:06Z,28.9192,-90.7744,6.4,100.848,28.8,-99999.0,'11111222,11111222,99999999' 
WAVCIS,ioos:station:WAVCIS:CSI10A:1,2019-06-07T18:06:06Z,28.9192,-90.7744,6.4,74.424,36.7,-99999.0,'11111222,11111222,99999999' 
WAVCIS,ioos:station:WAVCIS:CSI10A:1,2019-06-07T19:06:06Z,28.9192,-90.7744,6.4,57.297,40.4,-99999.0,'11111222,11111222,99999999' 
WAVCIS,ioos:station:WAVCIS:CSI10A:1,2019-06-07T20:06:06Z,28.9192,-90.7744,6.4,60.105,43.9,-99999.0,'11111222,11111222,99999999' 
WAVCIS,ioos:station:WAVCIS:CSI10A:1,2019-06-07T21:06:06Z,28.9192,-90.7744,6.4,60.137,37.0,-99999.0,'11111222,11111222,99999999' 
WAVCIS,ioos:station:WAVCIS:CSI10A:1,2019-06-07T22:06:06Z,28.9192,-90.7744,6.4,69.026,32.0,-99999.0,'11111222,11111222,99999999' 
WAVCIS,ioos:station:WAVCIS:CSI10A:1,2019-06-07T23:06:06Z,28.9192,-90.7744,6.4,75.641,22.9,-99999.0,'11111222,11111222,99999999' 
WAVCIS,ioos:station:WAVCIS:CSI10A:1,2019-06-08T00:06:06Z,28.9192,-90.7744,6.4,82.5,19.0,-99999.0,'11111222,11111222,99999999' 
WAVCIS,ioos:station:WAVCIS:CSI10A:1,2019-06-08T01:06:06Z,28.9192,-90.7744,6.4,82.5,27.0,-99999.0,'11111222,11111222,99999999' 
WAVCIS,ioos:station:WAVCIS:CSI10A:1,2019-06-08T02:06:06Z,28.9192,-90.7744,6.4,59.126,29.5,-99999.0,'11111222,11111222,99999999' 
WAVCIS,ioos:station:WAVCIS:CSI10A:1,2019-06-08T03:06:06Z,28.9192,-90.7744,6.4,68.119,31.8,-99999.0,'11111222,11111222,99999999' 
WAVCIS,ioos:station:WAVCIS:CSI10A:1,2019-06-08T04:06:06Z,28.9192,-90.7744,6.4,73.548,27.0,-99999.0,'11111222,11111222,99999999' 
WAVCIS,ioos:station:WAVCIS:CSI10A:1,2019-06-08T05:06:06Z,28.9192,-90.7744,6.4,66.715,31.5,-99999.0,'11111222,11111222,99999999' 
WAVCIS,ioos:station:WAVCIS:CSI10A:1,2019-06-08T06:06:06Z,28.9192,-90.7744,6.4,66.616,33.6,-99999.0,'11111222,11111222,99999999' 
WAVCIS,ioos:station:WAVCIS:CSI10A:1,2019-06-08T07:06:06Z,28.9192,-90.7744,6.4,63.678,38.0,-99999.0,'11111222,11111222,99999999' 
WAVCIS,ioos:station:WAVCIS:CSI10A:1,2019-06-08T08:06:06Z,28.9192,-90.7744,6.4,70.72,37.9,-99999.0,'11111222,11111222,99999999' 
WAVCIS,ioos:station:WAVCIS:CSI10A:1,2019-06-08T09:06:06Z,28.9192,-90.7744,6.4,88.287,29.5,-99999.0,'11111222,11111222,99999999' 
WAVCIS,ioos:station:WAVCIS:CSI10A:1,2019-06-08T10:06:06Z,28.9192,-90.7744,6.4,76.674,39.4,-99999.0,'11111222,11111222,99999999' 
WAVCIS,ioos:station:WAVCIS:CSI10A:1,2019-06-08T11:06:06Z,28.9192,-90.7744,6.4,65.061,49.2,-99999.0,'11111222,11111222,99999999' 
WAVCIS,ioos:station:WAVCIS:CSI10A:1,2019-06-08T12:06:06Z,28.9192,-90.7744,6.4,61.848,37.7,-99999.0,'11111222,11111222,99999999' 
WAVCIS,ioos:station:WAVCIS:CSI10A:1,2019-06-08T13:06:06Z,28.9192,-90.7744,6.4,67.03,47.4,-99999.0,'11111222,11111222,99999999' 
WAVCIS,ioos:station:WAVCIS:CSI10A:1,2019-06-08T14:06:06Z,28.9192,-90.7744,6.4,77.413,57.8,-99999.0,'11111222,11111222,99999999' 
WAVCIS,ioos:station:WAVCIS:CSI10A:1,2019-06-08T15:06:06Z,28.9192,-90.7744,6.4,100.835,62.2,-99999.0,'11111222,11111222,99999999' 